Airfield Data

Name Airfield Ganderkesee
ICAO Code EDWQ
Coordinates 53.02.15 N / 08.30.22 E
Direction 26 (262°) / 08 (082°)
Height above Ground 96 ft
Measurement 835 m x 22 m
Surface Runway: ASPH
Taxi Way: ASPH
Frequencies Ganderkesee Info / DF:  118.630 MHz
(at least 5 min. before approach)Bremen Information: 119.825 MHz
Bremen Approach: 125.650 MHzIn airfield traffic to be on call at all times.
Watch out for Gliders / Ultralights / Parachutes – especially on Saturday / Sunday / Holiday.
Tower Tel +49 4222 45 31
METAR
(EDDW)
EDDW 241950Z 30009KT 9999 SCT016 BKN020 BKN140 14/11 Q1020 TEMPO BKN012 (No limit or warranty)
TAF
(EDDW)
TAF COR EDDW 241749Z 2418/2518 30009KT 9999 BKN025 TEMPO 2418/2505 BKN013 PROB30 TEMPO 2502/2505 BKN007 TEMPO 2505/2512 4000 -DZRA BKN007 (No limit or warranty)
NOTAMs Keine aktiven NOTAMs. (No limit or warranty)
Hours of Operation 09:00 – 20:00 o’clock (automatically calculated time – without limit or warranty)

Summer:
UTC+2 9 A.M. until Sunset + 30 min. (max. 8 P.M.)

Winter:
UTC+1 9 A.M. until Sunset + 30 min. (max. 8 P.M.)

Other times PPR.
1 P.M. – 3 P.M. Start / Land only for / of cross-country flights.

Flight Operation Materials see Prices / Fees
Visual Flight see Visual Flight
Hangars see Hangar Places
Operating Modes VFR and NVFR at night
GAFOR 07
Aircrafts Airplanes up to 5.700 kg MPW
Motor gliders
Gliders (Towing)
Ultralight Planes
Balloons PPR
Airplanes starting at 5.700 kg PPR
Parachutes PPR